Regional Weather Roundup
Issued by NWS

Home | Current Version | Previous Version | Graphics & Text | Print | Product List | Glossary On
Versions: 1 2 3 4 5 6 7 8 9 10 11 12 13 14 15 16 17 18 19 20 21 22 23 24 25 26 27 28 29 30 31 32 33 34 35 36 37 38 39 40 41 42 43 44 45 46 47 48 49 50
000
ASUS43 KDMX 070707
RWRIA

WEATHER ROUNDUP FOR IOWA
NATIONAL WEATHER SERVICE DES MOINES IA
200 AM CDT TUE JUL 07 2015

NOTE: "FAIR" INDICATES FEW OR NO CLOUDS BELOW 12,000 FEET WITH NO
SIGNIFICANT WEATHER AND/OR OBSTRUCTIONS TO VISIBILITY.

* - THESE STATIONS ARE NOT NWS STATIONS...THUS NOT UNDER NWS
QUALITY CONTROL.  THEY ALSO DO NOT REPORT WEATHER SUCH
AS PRECIPITATION OR FOG.

IAZ001>003-012>014-020>022-031>034-043>046-070800-
   NORTHWEST IOWA

CITY           SKY/WX    TMP DP  RH WIND       PRES   REMARKS
CARROLL *      PTCLDY    57  52  82 N13       30.07S
CHEROKEE *     CLEAR     55  54  94 NE3       30.11F
DENISON *      MOCLDY    57  52  82 N7        30.07S
LE MARS *        N/A     54  54 100 CALM      30.14S
ORANGE CITY *  CLEAR     55  50  82 N6        30.13S
SHELDON *      MOCLDY    52  52 100 N6        30.12S
SIOUX CITY     CLEAR     58  53  84 N6        30.13S
SPENCER        CLEAR     51  47  86 N7        30.12S
STORM LAKE *   CLEAR     54  50  87 N12       30.11S
$$

IAZ055>058-069>071-079>083-090>094-070800-
   SOUTHWEST IOWA

CITY           SKY/WX    TMP DP  RH WIND       PRES   REMARKS
ATLANTIC *     PTCLDY    61  55  82 N9        30.06S
AUDUBON *      CLEAR     59  54  82 N13       30.07S
CLARINDA *     CLOUDY    66  61  82 N12       30.05R HAZE
COUNCIL BLFS * CLEAR     61  54  77 N10       30.07F
CRESTON *      CLOUDY    64  59  82 N14       30.03R HAZE
HARLAN  *      CLEAR     59  55  88 N8        30.10S
LAMONI         CLOUDY    66  60  81 N13       29.99S HAZE
RED OAK *      PTCLDY    63  57  82 N12       30.06R
SHENANDOAH *   MOCLDY    64  59  82 N9G16     30.06R
$$

IAZ047>049-059>061-072>074-084-070800-
   CENTRAL IOWA

CITY           SKY/WX    TMP DP  RH WIND       PRES   REMARKS
AMES           CLEAR     61  54  77 N14       30.02S
ANKENY *       PTCLDY    63  61  94 N8        30.00S FOG
CHARITON *     CLOUDY    64  59  82 N10       29.99S HAZE
DES MOINES     MOCLDY    66  58  75 N13       30.00S HAZE
GRINNELL*      MOCLDY    61  57  88 N10       29.98F FOG
KNOXVILLE *    MOCLDY    64  57  77 N10       29.97S HAZE
MARSHALLTOWN   PTCLDY    60  58  92 NW8       29.99S FOG
PELLA *        MOCLDY    63  61  94 N8        29.99S FOG
PERRY *          N/A     61  55  82 N12       30.04S
$$

IAZ004>006-015-016-023>025-035-036-070800-
   NORTH CENTRAL IOWA

CITY           SKY/WX    TMP DP  RH WIND       PRES   REMARKS
ALGONA *       CLEAR     55  52  88 N8G14     30.09S
CLARION *      CLEAR     55  52  88 N7        30.05S
ESTHERVILLE    CLEAR     51  48  89 NW8       30.11R
FORT DODGE *   CLEAR     57  50  77 N7        30.07S
MASON CITY     CLEAR     57  52  83 NW13      30.06R
FOREST CITY *  CLEAR     54  50  87 N9        30.06S
IOWA FALLS *     N/A     59  54  82 N10G17    30.03S
$$

IAZ007>011-017>019-026>030-037>042-050>054-066-070800-
   NORTHEAST IOWA

CITY           SKY/WX    TMP DP  RH WIND       PRES   REMARKS
CEDAR RAPIDS   CLOUDY    63  59  87 N14       29.94S FOG
CHARLES CITY * MOCLDY    59  59 100 N9G16     30.02S FOG
CLINTON *      CLOUDY    64  57  77 N15G21    29.91S
DECORAH *        N/A    N/A N/A N/A MISG        N/A
DUBUQUE        CLOUDY    61  56  83 N13       29.92F HAZE
MONTICELLO *   CLEAR     63  59  88 N10       29.93F FOG
OELWEIN *        N/A     57  57 100 NW6       29.99S FOG
WATERLOO       PTCLDY    59  57  93 NW8       29.98S FOG
$$

IAZ064-065-067-068-078-070800-
   EAST CENTRAL IOWA

CITY           SKY/WX    TMP DP  RH WIND       PRES   REMARKS
DAVENPORT      CLOUDY    65  59  81 N15       29.89S
IOWA CITY      CLOUDY    67  58  72 N14G26    29.93S HAZE
MT. PLEASANT * DRIZZLE   66  63  88 N15       29.90F
MUSCATINE *    CLOUDY    66  61  82 N10       29.91R
QUAD CITIES    CLOUDY    65  61  87 N8        29.88R
$$

IAZ062-063-075>077-085>089-095>099-070800-
   SOUTHEAST IOWA

CITY           SKY/WX    TMP DP  RH WIND       PRES   REMARKS
BURLINGTON     LGT RAIN  66  65  96 N13G22    29.88S
FAIRFIELD *    CLOUDY    64  59  82 N14G21    29.93S HAZE
FORT MADISON * LGT RAIN  66  64  94 N13       29.91R
KEOKUK *       CLOUDY    68  66  94 N12G20    29.89R
OSKALOOSA *    CLOUDY    64  57  77 N10G16    29.97R HAZE
CENTERVILLE *  CLOUDY    64  59  82 N14       29.97S
OTTUMWA        CLOUDY    64  59  83 N14       29.94R HAZE
WASHINGTON *   MOCLDY    66  61  82 N13G20    29.93F HAZE
$$

ABBREVIATIONS USED IN REMARKS
   TC - TEMPERATURES IN CELSIUS
  WCI - WIND CHILL INDEX
   HX - HEAT INDEX
  VSB - VISIBILITY
$$



USA.gov is the U.S. government's official web portal to all federal, state and local government web resources and services.